Alamogordo, NM

11:36 PM MDT on September 19, 2019 (GMT -0600)
Alamogordo-White Sands Regional

Weather History for KALM - August, 2019

Change the Weather History Date:

Saturday, August 24, 2019

  Actual Average Record
Temperature  
Mean Temperature 80 °F -  
Max Temperature 95 °F 89 °F 100 °F (1949)
Min Temperature 66 °F 63 °F 56 °F (1967)
Cooling Degree Days 16    
Growing Degree Days 30 (Base 50)    
Moisture  
Dew Point 48 °F    
Average Humidity 35    
Maximum Humidity 60    
Minimum Humidity 11    
Precipitation  
Precipitation 0.00 in - - ()
Sea Level Pressure  
Sea Level Pressure 30.06 in    
Wind  
Wind Speed 7 mph ()    
Max Wind Speed 13 mph    
Max Gust Speed 17 mph    
Visibility 10.0 miles    
Events      
Averages and records for this station are not official NWS values.
T = Trace of Precipitation, MM = Missing Value Source: Averaged Metar Reports

Daily Weather History Graph

Daily Weather History Graph

Search for Another Location

Airport or City:

Astronomy

Aug. 24, 2019 Rise Set
Actual Time 6:33 AM MDT 7:38 PM MDT
Civil Twilight 6:07 AM MDT 8:04 PM MDT
Nautical Twilight 5:37 AM MDT 8:34 PM MDT
Astronomical Twilight 5:05 AM MDT 9:05 PM MDT
Moon 12:34 AM MDT (8/24) 2:49 PM MDT (8/24)
Length of Visible Light 13h 56m
Length of Day
13h 05m
Last Quarter, 38% of the Moon is Illuminated
Aug 24
Last Quarter
Aug 30
New
Sep 5
First Quarter
Sep 13
Full
Sep 21
Last Quarter

Hourly Weather History & Observations

Time (MDT) Temp. Heat Index Dew Point Humidity Pressure Visibility Wind Dir Wind Speed Gust Speed Precip Events Conditions
12:15 AM 77.0 °F - 48.2 °F 36% 30.06 in 10.0 mi South 11.5 mph - N/A   Clear
12:35 AM 75.2 °F - 50.0 °F 41% 30.06 in 10.0 mi South 8.1 mph - N/A   Clear
12:55 AM 75.2 °F - 48.2 °F 38% 30.06 in 10.0 mi South 9.2 mph - N/A   Clear
1:15 AM 75.2 °F - 50.0 °F 41% 30.06 in 10.0 mi South 9.2 mph - N/A   Clear
1:35 AM 73.4 °F - 50.0 °F 44% 30.07 in 10.0 mi SSW 8.1 mph - N/A   Clear
1:55 AM 71.6 °F - 50.0 °F 46% 30.08 in 10.0 mi SSW 5.8 mph - N/A   Clear
2:15 AM 73.4 °F - 50.0 °F 44% 30.08 in 10.0 mi SSW 8.1 mph - N/A   Clear
2:35 AM 71.6 °F - 50.0 °F 46% 30.08 in 10.0 mi SSW 8.1 mph - N/A   Clear
2:55 AM 68.0 °F - 50.0 °F 52% 30.08 in 10.0 mi SE 8.1 mph - N/A   Clear
3:15 AM 71.6 °F - 50.0 °F 46% 30.08 in 10.0 mi SSE 8.1 mph - N/A   Clear
3:35 AM 71.6 °F - 50.0 °F 46% 30.09 in 10.0 mi South 5.8 mph - N/A   Clear
3:55 AM 69.8 °F - 50.0 °F 49% 30.09 in 10.0 mi South 6.9 mph - N/A   Clear
4:15 AM 69.8 °F - 50.0 °F 49% 30.09 in 10.0 mi SSE 5.8 mph - N/A   Clear
4:35 AM 68.0 °F - 50.0 °F 52% 30.08 in 10.0 mi South 6.9 mph - N/A   Clear
4:55 AM 68.0 °F - 50.0 °F 52% 30.07 in 10.0 mi South 3.5 mph - N/A   Clear
5:15 AM 66.2 °F - 50.0 °F 56% 30.07 in 10.0 mi SE 6.9 mph - N/A   Clear
5:35 AM 66.2 °F - 50.0 °F 56% 30.07 in 10.0 mi ESE 8.1 mph - N/A   Clear
6:15 AM 66.2 °F - 50.0 °F 56% 30.07 in 10.0 mi South 4.6 mph - N/A   Clear
6:35 AM 66.2 °F - 50.0 °F 56% 30.08 in 10.0 mi South 4.6 mph - N/A   Clear
6:55 AM 66.2 °F - 50.0 °F 56% 30.09 in 10.0 mi Calm Calm - N/A   Clear
7:15 AM 66.2 °F - 50.0 °F 56% 30.10 in 10.0 mi SE 4.6 mph - N/A   Clear
7:35 AM 68.0 °F - 53.6 °F 60% 30.10 in 10.0 mi SE 5.8 mph - N/A   Clear
7:55 AM 69.8 °F - 53.6 °F 56% 30.10 in 10.0 mi SSE 6.9 mph - N/A   Clear
8:15 AM 73.4 °F - 55.4 °F 53% 30.10 in 10.0 mi SSE 12.7 mph - N/A   Clear
8:35 AM 75.2 °F - 55.4 °F 50% 30.11 in 10.0 mi South 11.5 mph - N/A   Clear
8:55 AM 77.0 °F - 55.4 °F 47% 30.12 in 10.0 mi South 10.4 mph - N/A   Clear
9:15 AM 77.0 °F - 55.4 °F 47% 30.13 in 10.0 mi South 8.1 mph - N/A   Clear
9:35 AM 77.0 °F - 55.4 °F 47% 30.13 in 10.0 mi SSE 8.1 mph - N/A   Clear
9:55 AM 78.8 °F - 55.4 °F 44% 30.12 in 10.0 mi SSE 4.6 mph - N/A   Clear
10:15 AM 80.6 °F 80.5 °F 55.4 °F 42% 30.12 in 10.0 mi SE 5.8 mph - N/A   Clear
10:35 AM 82.4 °F 81.4 °F 53.6 °F 37% 30.12 in 10.0 mi South 4.6 mph - N/A   Clear
10:55 AM 82.4 °F 81.4 °F 53.6 °F 37% 30.12 in 10.0 mi SE 3.5 mph - N/A   Clear
11:15 AM 84.2 °F 82.8 °F 53.6 °F 35% 30.11 in 10.0 mi SSE 6.9 mph - N/A   Clear
11:35 AM 84.2 °F 82.8 °F 53.6 °F 35% 30.11 in 10.0 mi Calm Calm - N/A   Clear
11:55 AM 86.0 °F 84.2 °F 53.6 °F 33% 30.11 in 10.0 mi SW 9.2 mph - N/A   Clear
12:15 PM 86.0 °F 84.2 °F 53.6 °F 33% 30.10 in 10.0 mi South 9.2 mph - N/A   Clear
12:35 PM 86.0 °F - 51.8 °F 31% 30.10 in 10.0 mi SW 5.8 mph - N/A   Clear
12:55 PM 87.8 °F - 51.8 °F 29% 30.09 in 10.0 mi SSW 5.8 mph - N/A   Clear
1:15 PM 89.6 °F - 51.8 °F 27% 30.08 in 10.0 mi SSW 4.6 mph - N/A   Clear
1:55 PM 91.4 °F - 50.0 °F 24% 30.07 in 10.0 mi SE 8.1 mph - N/A   Clear
2:15 PM 91.4 °F - 50.0 °F 24% 30.06 in 10.0 mi South 11.5 mph 16.1 mph N/A   Clear
2:35 PM 93.2 °F - 50.0 °F 23% 30.05 in 10.0 mi SSW 10.4 mph - N/A   Clear
2:55 PM 93.2 °F - 48.2 °F 21% 30.04 in 10.0 mi SSW 8.1 mph - N/A   Clear
3:15 PM 93.2 °F - 48.2 °F 21% 30.03 in 10.0 mi South 5.8 mph - N/A   Clear
3:35 PM 93.2 °F - 46.4 °F 20% 30.03 in 10.0 mi SW 6.9 mph 17.3 mph N/A   Clear
3:55 PM 95.0 °F - 46.4 °F 19% 30.02 in 10.0 mi SW 9.2 mph - N/A   Clear
4:15 PM 95.0 °F - 46.4 °F 19% 30.01 in 10.0 mi SE 6.9 mph - N/A   Clear
4:35 PM 95.0 °F - 44.6 °F 18% 30.00 in 10.0 mi South 6.9 mph - N/A   Clear
4:55 PM 95.0 °F - 42.8 °F 16% 30.00 in 10.0 mi Calm Calm - N/A   Clear
5:15 PM 95.0 °F - 39.2 °F 14% 29.99 in 10.0 mi West 10.4 mph - N/A   Clear
5:35 PM 95.0 °F - 33.8 °F 12% 29.99 in 10.0 mi West 9.2 mph - N/A   Clear
5:55 PM 95.0 °F - 35.6 °F 12% 29.99 in 10.0 mi West 9.2 mph - N/A   Clear
6:15 PM 95.0 °F - 33.8 °F 12% 29.99 in 10.0 mi WSW 4.6 mph - N/A   Clear
6:35 PM 95.0 °F - 33.8 °F 12% 30.00 in 10.0 mi West 6.9 mph - N/A   Clear
6:55 PM 93.2 °F - 32.0 °F 11% 30.00 in 10.0 mi West 6.9 mph - N/A   Clear
7:15 PM 93.2 °F - 32.0 °F 11% 30.00 in 10.0 mi West 5.8 mph - N/A   Clear
7:35 PM 87.8 °F - 35.6 °F 16% 30.01 in 10.0 mi South 4.6 mph - N/A   Clear
7:55 PM 84.2 °F - 41.0 °F 22% 30.01 in 10.0 mi South 6.9 mph - N/A   Clear
8:15 PM 82.4 °F - 44.6 °F 26% 30.01 in 10.0 mi South 6.9 mph - N/A   Clear
8:35 PM 80.6 °F - 46.4 °F 30% 30.02 in 10.0 mi SSE 9.2 mph - N/A   Clear
8:55 PM 80.6 °F - 46.4 °F 30% 30.03 in 10.0 mi SSE 8.1 mph - N/A   Clear
9:15 PM 82.4 °F - 48.2 °F 30% 30.04 in 10.0 mi SSE 9.2 mph - N/A   Clear
9:35 PM 82.4 °F - 48.2 °F 30% 30.05 in 10.0 mi SSE 9.2 mph - N/A   Clear
9:55 PM 84.2 °F - 48.2 °F 29% 30.05 in 10.0 mi SSE 9.2 mph - N/A   Clear
10:15 PM 82.4 °F - 48.2 °F 30% 30.05 in 10.0 mi SSE 9.2 mph - N/A   Clear
10:35 PM 80.6 °F - 48.2 °F 32% 30.05 in 10.0 mi South 9.2 mph - N/A   Clear
10:55 PM 80.6 °F - 48.2 °F 32% 30.05 in 10.0 mi SSE 9.2 mph - N/A   Clear
11:15 PM 82.4 °F - 48.2 °F 30% 30.05 in 10.0 mi South 10.4 mph - N/A   Clear
11:35 PM 80.6 °F - 48.2 °F 32% 30.05 in 10.0 mi SSE 10.4 mph - N/A   Clear
11:55 PM 80.6 °F - 48.2 °F 32% 30.05 in 10.0 mi South 8.1 mph - N/A   Clear